Location: Santa Cristina
(46.5667°N, 11.7167°E)
Time: 04:30:29
(UTC+00:00)

Cosmos 1605 Rocket - Pass Details

Date: 21 April 2021
Orbit: 944 x 1006 km, 82.9° (Epoch: 10 May)

Event Time Altitude Azimuth Distance (km) Brightness Sun altitude
Rises 02:17:24 0° 351° (N) 3,626 7.5 -18.3°
Reaches altitude 10° 02:19:53 10° 352° (N) 2,679 6.7 -18.0°
Maximum altitude 02:26:01 88° 80° (E) 961 3.9 -17.2°
Drops below altitude 10° 02:32:11 10° 173° (S) 2,691 6.0 -16.4°
Sets 02:34:41 0° 173° (S) 3,642 6.7 -16.0°
